TimeEST,TemperatureF,Dew PointF,Humidity,Sea Level PressureIn,VisibilityMPH,Wind Direction,Wind SpeedMPH,Gust SpeedMPH,PrecipitationIn,Events,Conditions,WindDirDegrees,DateUTC
12:15 AM,39.4,37.9,95,30.28,7.0,Calm,Calm,-,N/A,,Clear,0,2013-03-09 05:15:00
12:35 AM,41.0,38.5,91,30.28,10.0,Calm,Calm,-,N/A,,Clear,0,2013-03-09 05:35:00
12:55 AM,38.8,36.9,93,30.28,1.5,Calm,Calm,-,N/A,,Mist,0,2013-03-09 05:55:00
1:15 AM,38.3,36.5,93,30.27,7.0,Calm,Calm,-,N/A,,Clear,0,2013-03-09 06:15:00
1:35 AM,37.2,35.6,94,30.27,5.0,Calm,Calm,-,N/A,,Clear,0,2013-03-09 06:35:00
1:55 AM,38.5,37.4,96,30.27,2.0,Calm,Calm,-,N/A,,Clear,0,2013-03-09 06:55:00
2:15 AM,37.8,36.7,96,30.27,0.8,Calm,Calm,-,N/A,,Mist,0,2013-03-09 07:15:00
2:35 AM,36.0,34.7,95,30.26,0.8,Calm,Calm,-,N/A,,Mist,0,2013-03-09 07:35:00
2:55 AM,36.1,35.1,96,30.25,1.8,Calm,Calm,-,N/A,,Mist,0,2013-03-09 07:55:00
3:15 AM,37.0,36.1,97,30.24,0.8,Calm,Calm,-,N/A,,Mist,0,2013-03-09 08:15:00
3:35 AM,36.7,35.8,97,30.24,1.8,Calm,Calm,-,N/A,,Mist,0,2013-03-09 08:35:00
3:55 AM,36.5,35.6,97,30.24,1.2,Calm,Calm,-,N/A,,Mist,0,2013-03-09 08:55:00
4:15 AM,35.6,34.7,97,30.26,1.5,Calm,Calm,-,N/A,,Mist,0,2013-03-09 09:15:00
4:35 AM,36.7,35.8,97,30.27,3.0,Calm,Calm,-,N/A,,Clear,0,2013-03-09 09:35:00
4:55 AM,34.9,33.8,96,30.27,7.0,Calm,Calm,-,N/A,,Clear,0,2013-03-09 09:55:00
5:15 AM,35.6,34.3,95,30.27,4.0,Calm,Calm,-,N/A,,Clear,0,2013-03-09 10:15:00
5:35 AM,35.6,34.3,95,30.27,7.0,Calm,Calm,-,N/A,,Clear,0,2013-03-09 10:35:00
5:55 AM,33.4,32.4,96,30.28,5.0,Calm,Calm,-,N/A,,Clear,0,2013-03-09 10:55:00
6:15 AM,33.6,32.7,96,30.29,5.0,Calm,Calm,-,N/A,,Clear,0,2013-03-09 11:15:00
6:35 AM,33.3,32.2,96,30.30,2.5,Calm,Calm,-,N/A,,Clear,0,2013-03-09 11:35:00
6:55 AM,33.8,32.9,96,30.30,3.0,Calm,Calm,-,N/A,,Clear,0,2013-03-09 11:55:00
7:15 AM,33.3,32.4,96,30.31,4.0,Calm,Calm,-,N/A,,Clear,0,2013-03-09 12:15:00
7:35 AM,34.0,33.1,96,30.32,4.0,Calm,Calm,-,N/A,,Clear,0,2013-03-09 12:35:00
7:55 AM,37.2,36.0,95,30.33,7.0,Calm,Calm,-,N/A,,Clear,0,2013-03-09 12:55:00
8:15 AM,41.5,38.8,90,30.35,10.0,Calm,Calm,-,N/A,,Clear,0,2013-03-09 13:15:00
8:35 AM,47.1,32.5,57,30.35,10.0,East,5.8,-,N/A,,Clear,90,2013-03-09 13:35:00
8:55 AM,49.3,30.2,48,30.36,10.0,East,11.5,-,N/A,,Clear,90,2013-03-09 13:55:00
9:15 AM,51.3,30.2,44,30.36,10.0,East,8.1,-,N/A,,Clear,90,2013-03-09 14:15:00
9:35 AM,53.6,29.3,39,30.36,10.0,ESE,9.2,-,N/A,,Clear,110,2013-03-09 14:35:00
9:55 AM,55.0,27.7,35,30.36,10.0,East,8.1,-,N/A,,Clear,100,2013-03-09 14:55:00
10:15 AM,57.0,26.6,31,30.36,10.0,ESE,5.8,-,N/A,,Clear,110,2013-03-09 15:15:00
10:35 AM,58.1,25.9,29,30.35,10.0,ESE,9.2,-,N/A,,Clear,120,2013-03-09 15:35:00
10:55 AM,59.5,26.1,28,30.35,10.0,ESE,8.1,-,N/A,,Clear,110,2013-03-09 15:55:00
11:15 AM,60.8,25.5,26,30.35,10.0,ESE,8.1,-,N/A,,Clear,110,2013-03-09 16:15:00
11:35 AM,62.1,25.7,25,30.35,10.0,SE,5.8,-,N/A,,Clear,140,2013-03-09 16:35:00
11:55 AM,62.2,25.0,24,30.34,10.0,SE,5.8,-,N/A,,Clear,140,2013-03-09 16:55:00
12:15 PM,64.6,25.2,22,30.33,10.0,ESE,9.2,-,N/A,,Clear,110,2013-03-09 17:15:00
12:35 PM,65.3,24.1,21,30.33,10.0,East,5.8,-,N/A,,Clear,80,2013-03-09 17:35:00
12:55 PM,65.5,23.9,21,30.32,10.0,ENE,5.8,-,N/A,,Clear,60,2013-03-09 17:55:00
1:15 PM,66.2,24.1,20,30.30,10.0,ENE,8.1,-,N/A,,Clear,60,2013-03-09 18:15:00
1:35 PM,66.7,22.3,18,30.29,10.0,East,8.1,-,N/A,,Clear,100,2013-03-09 18:35:00
1:55 PM,68.5,22.6,18,30.28,10.0,East,6.9,-,N/A,,Clear,90,2013-03-09 18:55:00
2:15 PM,67.5,22.5,18,30.28,10.0,Calm,Calm,-,N/A,,Clear,0,2013-03-09 19:15:00
2:35 PM,68.5,22.6,18,30.27,10.0,SE,3.5,-,N/A,,Clear,140,2013-03-09 19:35:00
2:55 PM,68.9,22.6,17,30.27,10.0,SSE,3.5,-,N/A,,Clear,150,2013-03-09 19:55:00
3:15 PM,69.6,23.9,18,30.26,10.0,ESE,3.5,-,N/A,,Clear,110,2013-03-09 20:15:00
3:35 PM,69.3,23.0,17,30.26,10.0,ENE,4.6,-,N/A,,Clear,70,2013-03-09 20:35:00
4:15 PM,69.4,23.4,18,30.24,10.0,Calm,Calm,-,N/A,,Clear,0,2013-03-09 21:15:00
4:35 PM,69.8,23.7,18,30.23,10.0,Calm,Calm,-,N/A,,Clear,0,2013-03-09 21:35:00
4:55 PM,68.5,25.2,20,30.23,10.0,East,3.5,-,N/A,,Clear,90,2013-03-09 21:55:00
5:15 PM,68.5,26.1,20,30.24,10.0,East,5.8,-,N/A,,Clear,90,2013-03-09 22:15:00
5:35 PM,67.5,25.9,21,30.24,10.0,ESE,4.6,-,N/A,,Clear,120,2013-03-09 22:35:00
5:55 PM,67.1,26.6,22,30.24,10.0,Calm,Calm,-,N/A,,Clear,0,2013-03-09 22:55:00
6:15 PM,65.3,29.3,26,30.24,10.0,Calm,Calm,-,N/A,,Clear,0,2013-03-09 23:15:00
6:35 PM,63.1,30.7,30,30.25,10.0,Calm,Calm,-,N/A,,Clear,0,2013-03-09 23:35:00
6:55 PM,61.5,32.4,33,30.25,10.0,Calm,Calm,-,N/A,,Clear,0,2013-03-09 23:55:00
7:15 PM,59.7,34.2,38,30.25,10.0,ESE,3.5,-,N/A,,Clear,120,2013-03-10 00:15:00
7:35 PM,55.8,36.5,48,30.25,10.0,Calm,Calm,-,N/A,,Clear,0,2013-03-10 00:35:00
7:55 PM,53.6,35.8,51,30.26,10.0,Calm,Calm,-,N/A,,Clear,0,2013-03-10 00:55:00
8:15 PM,54.1,37.2,53,30.26,10.0,Calm,Calm,-,N/A,,Clear,0,2013-03-10 01:15:00
8:35 PM,52.9,39.2,60,30.25,10.0,Calm,Calm,-,N/A,,Clear,0,2013-03-10 01:35:00
8:55 PM,52.7,38.5,58,30.25,10.0,Calm,Calm,-,N/A,,Clear,0,2013-03-10 01:55:00
9:15 PM,51.1,37.9,61,30.25,10.0,Calm,Calm,-,N/A,,Clear,0,2013-03-10 02:15:00
9:35 PM,50.2,38.1,63,30.25,10.0,Calm,Calm,-,N/A,,Clear,0,2013-03-10 02:35:00
9:55 PM,49.5,39.9,70,30.25,10.0,Calm,Calm,-,N/A,,Clear,0,2013-03-10 02:55:00
10:15 PM,54.0,35.2,49,30.26,10.0,SE,6.9,-,N/A,,Clear,130,2013-03-10 03:15:00
10:35 PM,54.9,34.9,47,30.26,10.0,SE,4.6,-,N/A,,Clear,130,2013-03-10 03:35:00
10:55 PM,54.7,35.6,49,30.27,10.0,SE,4.6,-,N/A,,Clear,140,2013-03-10 03:55:00
11:15 PM,54.5,36.9,51,30.27,10.0,SE,4.6,-,N/A,,Clear,140,2013-03-10 04:15:00
11:35 PM,53.8,37.8,55,30.27,10.0,SE,4.6,-,N/A,,Clear,130,2013-03-10 04:35:00
11:55 PM,52.2,37.8,58,30.27,10.0,SE,3.5,-,N/A,,Clear,130,2013-03-10 04:55:00